Time,TemperatureF,DewpointF,PressureIn,WindDirection,WindDirectionDegrees,WindSpeedMPH,WindSpeedGustMPH,Humidity,HourlyPrecipIn,Conditions,Clouds,dailyrainin,SolarRadiationWatts/m^2,SoftwareType,DateUTC
2013-09-23 00:01:00,47.0,35.0,-100.00,NNW,329,8.0,19.0,63,0.00,,,0.00,0.000000,,2013-09-23 07:01:00,
2013-09-23 00:11:00,47.0,35.0,-100.00,NNW,329,8.0,19.0,63,0.00,,,0.00,0.000000,,2013-09-23 07:11:00,
2013-09-23 00:21:00,47.0,35.0,-100.00,NNW,329,8.0,19.0,63,0.00,,,0.00,0.000000,,2013-09-23 07:21:00,
2013-09-23 00:52:00,49.0,27.0,-100.00,NNW,329,5.0,17.0,42,0.00,,,0.00,0.000000,,2013-09-23 07:52:00,
2013-09-23 01:02:00,49.0,27.0,-100.00,NNW,329,5.0,17.0,42,0.00,,,0.00,0.000000,,2013-09-23 08:02:00,
2013-09-23 01:22:00,49.0,27.0,-100.00,NNW,329,5.0,17.0,42,0.00,,,0.00,0.000000,,2013-09-23 08:22:00,
2013-09-23 03:12:00,54.0,21.0,-100.00,NNE,24,0.0,8.0,27,0.00,,,0.00,0.000000,,2013-09-23 10:12:00,
2013-09-23 03:23:00,54.0,21.0,-100.00,NNE,24,0.0,8.0,27,0.00,,,0.00,0.000000,,2013-09-23 10:23:00,
2013-09-23 03:52:00,54.0,19.0,-100.00,NNE,29,2.0,3.0,25,0.00,,,-99.99,0.000000,,2013-09-23 10:52:00,
2013-09-23 04:02:00,54.0,19.0,-100.00,NNE,29,2.0,3.0,25,0.00,,,-99.99,0.000000,,2013-09-23 11:02:00,
2013-09-23 05:52:00,54.0,21.0,-100.00,ENE,70,4.0,7.0,27,-99.99,,,0.00,0.000000,,2013-09-23 12:52:00,
2013-09-23 06:01:00,54.0,21.0,-100.00,ENE,70,4.0,7.0,27,-99.99,,,0.00,0.000000,,2013-09-23 13:01:00,
2013-09-23 07:21:00,54.0,21.0,-100.00,East,85,8.0,9.0,27,-99.99,,,0.00,0.000000,,2013-09-23 14:21:00,
2013-09-23 07:52:00,54.0,19.0,-100.00,East,88,8.0,11.0,25,0.00,,,0.00,0.000000,,2013-09-23 14:52:00,
2013-09-23 08:02:00,54.0,19.0,-100.00,East,88,8.0,11.0,25,0.00,,,0.00,0.000000,,2013-09-23 15:02:00,
2013-09-23 08:11:00,54.0,19.0,-100.00,East,88,8.0,11.0,25,0.00,,,0.00,0.000000,,2013-09-23 15:11:00,
2013-09-23 08:21:00,54.0,19.0,-100.00,East,88,8.0,11.0,25,0.00,,,0.00,0.000000,,2013-09-23 15:21:00,
2013-09-23 08:54:00,57.0,17.0,-100.00,East,91,6.0,12.0,21,0.00,,,0.00,26.000000,,2013-09-23 15:54:00,
2013-09-23 09:03:00,57.0,17.0,-100.00,East,91,6.0,12.0,21,0.00,,,0.00,26.000000,,2013-09-23 16:03:00,
2013-09-23 09:12:00,57.0,17.0,-100.00,East,91,6.0,12.0,21,0.00,,,0.00,26.000000,,2013-09-23 16:12:00,
2013-09-23 09:23:00,57.0,17.0,-100.00,East,91,6.0,12.0,21,0.00,,,0.00,26.000000,,2013-09-23 16:23:00,
2013-09-23 09:53:00,63.0,20.0,-100.00,East,99,7.0,14.0,19,0.00,,,0.00,241.000000,,2013-09-23 16:53:00,
2013-09-23 10:03:00,63.0,20.0,-100.00,East,99,7.0,14.0,19,0.00,,,0.00,241.000000,,2013-09-23 17:03:00,
2013-09-23 10:12:00,63.0,20.0,-100.00,East,99,7.0,14.0,19,0.00,,,0.00,241.000000,,2013-09-23 17:12:00,
2013-09-23 10:24:00,63.0,20.0,-100.00,East,99,7.0,14.0,19,0.00,,,0.00,241.000000,,2013-09-23 17:24:00,
2013-09-23 10:52:00,63.0,20.0,-100.00,ESE,104,8.0,14.0,19,0.00,,,-99.99,226.000000,,2013-09-23 17:52:00,
2013-09-23 11:02:00,63.0,20.0,-100.00,ESE,104,8.0,14.0,19,0.00,,,-99.99,226.000000,,2013-09-23 18:02:00,
2013-09-23 11:12:00,63.0,20.0,-100.00,ESE,104,8.0,14.0,19,0.00,,,-99.99,226.000000,,2013-09-23 18:12:00,
2013-09-23 11:21:00,63.0,20.0,-100.00,ESE,104,8.0,14.0,19,0.00,,,-99.99,226.000000,,2013-09-23 18:21:00,
2013-09-23 11:52:00,65.0,22.0,-100.00,ESE,107,10.0,17.0,19,0.00,,,0.00,737.000000,,2013-09-23 18:52:00,
2013-09-23 12:02:00,65.0,22.0,-100.00,ESE,107,10.0,17.0,19,0.00,,,0.00,737.000000,,2013-09-23 19:02:00,
2013-09-23 12:12:00,65.0,22.0,-100.00,ESE,107,10.0,17.0,19,0.00,,,0.00,737.000000,,2013-09-23 19:12:00,
2013-09-23 12:22:00,65.0,22.0,-100.00,ESE,107,10.0,17.0,19,0.00,,,0.00,737.000000,,2013-09-23 19:22:00,
2013-09-23 12:53:00,66.0,21.0,-100.00,ESE,118,7.0,15.0,18,0.00,,,0.00,987.000000,,2013-09-23 19:53:00,
2013-09-23 13:02:00,66.0,21.0,-100.00,ESE,118,7.0,15.0,18,0.00,,,0.00,987.000000,,2013-09-23 20:02:00,
2013-09-23 13:12:00,66.0,21.0,-100.00,ESE,118,7.0,15.0,18,0.00,,,0.00,987.000000,,2013-09-23 20:12:00,
2013-09-23 13:21:00,66.0,21.0,-100.00,ESE,118,7.0,15.0,18,0.00,,,0.00,987.000000,,2013-09-23 20:21:00,
2013-09-23 13:52:00,68.0,20.0,-100.00,SE,140,6.0,18.0,16,0.00,,,0.00,1092.000000,,2013-09-23 20:52:00,
2013-09-23 14:02:00,68.0,20.0,-100.00,SE,140,6.0,18.0,16,0.00,,,0.00,1092.000000,,2013-09-23 21:02:00,
2013-09-23 14:11:00,68.0,20.0,-100.00,SE,140,6.0,18.0,16,0.00,,,0.00,1092.000000,,2013-09-23 21:11:00,
2013-09-23 14:23:00,68.0,20.0,-100.00,SE,140,6.0,18.0,16,0.00,,,0.00,1092.000000,,2013-09-23 21:23:00,
2013-09-23 14:54:00,69.0,22.0,-100.00,ESE,121,7.0,14.0,17,0.00,,,0.00,1117.000000,,2013-09-23 21:54:00,
2013-09-23 15:03:00,69.0,22.0,-100.00,ESE,121,7.0,14.0,17,0.00,,,0.00,1117.000000,,2013-09-23 22:03:00,
2013-09-23 15:13:00,69.0,22.0,-100.00,ESE,121,7.0,14.0,17,0.00,,,0.00,1117.000000,,2013-09-23 22:13:00,
2013-09-23 15:23:00,69.0,22.0,-100.00,ESE,121,7.0,14.0,17,0.00,,,0.00,1117.000000,,2013-09-23 22:23:00,
2013-09-23 15:54:00,71.0,23.0,-100.00,SE,128,8.0,16.0,16,0.00,,,0.00,1057.000000,,2013-09-23 22:54:00,
2013-09-23 16:02:00,71.0,23.0,-100.00,SE,128,8.0,16.0,16,0.00,,,0.00,1057.000000,,2013-09-23 23:02:00,
2013-09-23 16:12:00,71.0,23.0,-100.00,SE,128,8.0,16.0,16,0.00,,,0.00,1057.000000,,2013-09-23 23:12:00,
2013-09-23 16:22:00,71.0,23.0,-100.00,SE,128,8.0,16.0,16,0.00,,,0.00,1057.000000,,2013-09-23 23:22:00,
2013-09-23 16:54:00,71.0,21.0,-100.00,South,172,5.0,15.0,15,0.00,,,0.00,918.000000,,2013-09-23 23:54:00,
2013-09-23 17:01:00,71.0,21.0,-100.00,South,172,5.0,15.0,15,0.00,,,0.00,918.000000,,2013-09-24 00:01:00,
2013-09-23 17:11:00,71.0,21.0,-100.00,South,172,5.0,15.0,15,0.00,,,0.00,918.000000,,2013-09-24 00:11:00,
2013-09-23 17:22:00,71.0,21.0,-100.00,South,172,5.0,15.0,15,0.00,,,0.00,918.000000,,2013-09-24 00:22:00,
2013-09-23 17:52:00,76.0,32.0,-100.00,ESE,106,7.0,13.0,20,0.00,,,0.00,711.000000,,2013-09-24 00:52:00,
2013-09-23 18:01:00,76.0,32.0,-100.00,ESE,106,7.0,13.0,20,0.00,,,0.00,711.000000,,2013-09-24 01:01:00,
2013-09-23 18:12:00,76.0,32.0,-100.00,ESE,106,7.0,13.0,20,0.00,,,0.00,711.000000,,2013-09-24 01:12:00,
2013-09-23 18:21:00,76.0,32.0,-100.00,ESE,106,7.0,13.0,20,0.00,,,0.00,711.000000,,2013-09-24 01:21:00,
2013-09-23 18:52:00,67.0,26.0,-100.00,SE,142,5.0,12.0,21,0.00,,,0.00,456.000000,,2013-09-24 01:52:00,
2013-09-23 19:02:00,67.0,26.0,-100.00,SE,142,5.0,12.0,21,0.00,,,0.00,456.000000,,2013-09-24 02:02:00,
2013-09-23 19:12:00,67.0,26.0,-100.00,SE,142,5.0,12.0,21,0.00,,,0.00,456.000000,,2013-09-24 02:12:00,
2013-09-23 19:22:00,67.0,26.0,-100.00,SE,142,5.0,12.0,21,0.00,,,0.00,456.000000,,2013-09-24 02:22:00,
2013-09-23 19:52:00,65.0,28.0,-100.00,East,91,5.0,11.0,25,0.00,,,0.00,80.000000,,2013-09-24 02:52:00,
2013-09-23 20:02:00,65.0,28.0,-100.00,East,91,5.0,11.0,25,0.00,,,0.00,80.000000,,2013-09-24 03:02:00,
2013-09-23 20:12:00,65.0,28.0,-100.00,East,91,5.0,11.0,25,0.00,,,0.00,80.000000,,2013-09-24 03:12:00,
2013-09-23 20:21:00,65.0,28.0,-100.00,East,91,5.0,11.0,25,0.00,,,0.00,80.000000,,2013-09-24 03:21:00,
2013-09-23 20:54:00,61.0,25.0,-100.00,NNE,28,6.0,8.0,25,0.00,,,0.00,4.000000,,2013-09-24 03:54:00,
2013-09-23 21:04:00,61.0,25.0,-100.00,NNE,28,6.0,8.0,25,0.00,,,0.00,4.000000,,2013-09-24 04:04:00,
2013-09-23 21:14:00,61.0,25.0,-100.00,NNE,28,6.0,8.0,25,0.00,,,0.00,4.000000,,2013-09-24 04:14:00,
2013-09-23 21:23:00,61.0,25.0,-100.00,NNE,28,6.0,8.0,25,0.00,,,0.00,4.000000,,2013-09-24 04:23:00,
2013-09-23 21:54:00,61.0,30.0,-100.00,NNW,336,6.0,8.0,31,0.00,,,0.00,0.000000,,2013-09-24 04:54:00,
2013-09-23 22:03:00,61.0,30.0,-100.00,NNW,336,6.0,8.0,31,0.00,,,0.00,0.000000,,2013-09-24 05:03:00,
2013-09-23 22:13:00,61.0,30.0,-100.00,NNW,336,6.0,8.0,31,0.00,,,0.00,0.000000,,2013-09-24 05:13:00,
2013-09-23 22:22:00,61.0,30.0,-100.00,NNW,336,6.0,8.0,31,0.00,,,0.00,0.000000,,2013-09-24 05:22:00,
2013-09-23 22:53:00,60.0,28.0,-100.00,NNW,329,11.0,11.0,29,0.00,,,0.00,0.000000,,2013-09-24 05:53:00,
2013-09-23 23:02:00,60.0,28.0,-100.00,NNW,329,11.0,11.0,29,0.00,,,0.00,0.000000,,2013-09-24 06:02:00,
2013-09-23 23:12:00,60.0,28.0,-100.00,NNW,329,11.0,11.0,29,0.00,,,0.00,0.000000,,2013-09-24 06:12:00,
2013-09-23 23:22:00,60.0,28.0,-100.00,NNW,329,11.0,11.0,29,0.00,,,0.00,0.000000,,2013-09-24 06:22:00,
2013-09-23 23:52:00,61.0,29.0,-100.00,NW,325,12.0,12.0,29,0.00,,,0.00,0.000000,,2013-09-24 06:52:00,